Meteo pe oră la Dziuplina

Astăzi, 24 Februarie, Miercuri

Timp Temperatura Precipitaţii Vânt Presiune Umiditate
00:00 +8°C° 0 mm 2 m/s 764 mmHg 73%
01:00 +8°C° 0 mm 2 m/s 764 mmHg 74%
02:00 +8°C° 0 mm 2 m/s 764 mmHg 75%
03:00 +8°C° 0 mm 2 m/s 764 mmHg 77%
04:00 +8°C° 0 mm 1 m/s 764 mmHg 78%
05:00 +8°C° 0 mm 1 m/s 764 mmHg 78%
06:00 +8°C° 0 mm 1 m/s 764 mmHg 78%
07:00 +8°C° 0 mm 1 m/s 764 mmHg 76%
08:00 +10°C° 0 mm 1 m/s 764 mmHg 72%
09:00 +11°C° 0 mm 1 m/s 764 mmHg 67%
10:00 +13°C° 0 mm 2 m/s 764 mmHg 63%
11:00 +15°C° 0 mm 2 m/s 764 mmHg 59%
12:00 +16°C° 0 mm 2 m/s 763 mmHg 55%
13:00 +18°C° 0 mm 2 m/s 763 mmHg 51%
14:00 +17°C° 0 mm 2 m/s 763 mmHg 53%
15:00 +17°C° 0 mm 2 m/s 762 mmHg 55%
16:00 +17°C° 0 mm 2 m/s 762 mmHg 56%
17:00 +15°C° 0 mm 2 m/s 762 mmHg 59%
18:00 +13°C° 0 mm 2 m/s 762 mmHg 62%
19:00 +12°C° 0 mm 2 m/s 762 mmHg 65%
20:00 +10°C° 0 mm 2 m/s 762 mmHg 66%
21:00 +10°C° 0 mm 2 m/s 762 mmHg 68%
22:00 +10°C° 0 mm 1 m/s 762 mmHg 69%
23:00 +10°C° 0 mm 1 m/s 762 mmHg 70%

Mâine, 25 Februarie, Joi

Timp Temperatura Precipitaţii Vânt Presiune Umiditate
00:00 +9°C° 0 mm 2 m/s 762 mmHg 70%
01:00 +8°C° 0 mm 2 m/s 762 mmHg 71%
02:00 +9°C° 0 mm 1 m/s 762 mmHg 72%
03:00 +8°C° 0 mm 1 m/s 761 mmHg 73%
04:00 +8°C° 0 mm 1 m/s 761 mmHg 74%
05:00 +8°C° 0 mm 1 m/s 761 mmHg 75%
06:00 +8°C° 0 mm 1 m/s 761 mmHg 76%
07:00 +7°C° 0 mm 1 m/s 761 mmHg 77%
08:00 +9°C° 0 mm 1 m/s 761 mmHg 72%
09:00 +10°C° 0 mm 2 m/s 760 mmHg 67%
10:00 +12°C° 0 mm 2 m/s 760 mmHg 62%
11:00 +14°C° 0 mm 2 m/s 760 mmHg 58%
12:00 +15°C° 0 mm 2 m/s 760 mmHg 55%
13:00 +17°C° 0 mm 2 m/s 760 mmHg 51%
14:00 +17°C° 0 mm 2 m/s 759 mmHg 54%
15:00 +16°C° 0 mm 2 m/s 759 mmHg 57%
16:00 +16°C° 0 mm 2 m/s 758 mmHg 60%
17:00 +15°C° 0 mm 2 m/s 759 mmHg 64%
18:00 +12°C° 0 mm 3 m/s 759 mmHg 69%
19:00 +10°C° 0 mm 3 m/s 759 mmHg 74%
20:00 +10°C° 0 mm 3 m/s 759 mmHg 75%
21:00 +9°C° 0 mm 3 m/s 759 mmHg 76%
22:00 +9°C° 0 mm 3 m/s 759 mmHg 77%
23:00 +8°C° 0 mm 2 m/s 759 mmHg 77%

Poimâine, 26 Februarie, Vineri

Timp Temperatura Precipitaţii Vânt Presiune Umiditate
00:00 +8°C° 0 mm 2 m/s 759 mmHg 77%
01:00 +8°C° 0 mm 2 m/s 759 mmHg 77%
02:00 +7°C° 0 mm 2 m/s 759 mmHg 79%
03:00 +7°C° 0 mm 2 m/s 759 mmHg 81%
04:00 +7°C° 0 mm 2 m/s 759 mmHg 82%
05:00 +6°C° 0 mm 2 m/s 759 mmHg 84%
06:00 +7°C° 0 mm 1 m/s 759 mmHg 85%
07:00 +7°C° 0 mm 1 m/s 759 mmHg 86%
08:00 +8°C° 0 mm 1 m/s 759 mmHg 82%
09:00 +9°C° 0 mm 2 m/s 759 mmHg 78%
10:00 +10°C° 0 mm 2 m/s 759 mmHg 74%
11:00 +12°C° 0 mm 2 m/s 759 mmHg 73%
12:00 +12°C° 0 mm 3 m/s 759 mmHg 71%
13:00 +12°C° 0 mm 4 m/s 759 mmHg 70%
14:00 +11°C° 0 mm 3 m/s 758 mmHg 76%
15:00 +10°C° 0 mm 3 m/s 758 mmHg 81%
16:00 +9°C° 0 mm 3 m/s 758 mmHg 87%
17:00 +9°C° 0 mm 3 m/s 758 mmHg 88%
18:00 +8°C° 0 mm 3 m/s 759 mmHg 90%
19:00 +8°C° 0 mm 3 m/s 759 mmHg 91%
20:00 +7°C° 0 mm 3 m/s 759 mmHg 91%
21:00 +7°C° 0 mm 3 m/s 759 mmHg 91%
22:00 +5°C° 0 mm 3 m/s 759 mmHg 92%
23:00 +4°C° 0 mm 4 m/s 759 mmHg 91%

27 Februarie, Sâmbătă

Timp Temperatura Precipitaţii Vânt Presiune Umiditate
00:00 +4°C° 0 mm 4 m/s 759 mmHg 89%
01:00 +3°C° 0 mm 4 m/s 760 mmHg 88%
02:00 +3°C° 0 mm 4 m/s 759 mmHg 89%
03:00 +1°C° 0 mm 4 m/s 759 mmHg 89%
04:00 +1°C° 0 mm 4 m/s 759 mmHg 90%
05:00 +1°C° 0 mm 4 m/s 760 mmHg 90%
06:00 +1°C° 0 mm 5 m/s 760 mmHg 90%
07:00 +1°C° 0 mm 5 m/s 760 mmHg 90%
08:00 +1°C° 0 mm 5 m/s 760 mmHg 88%
09:00 +2°C° 0 mm 6 m/s 761 mmHg 86%
10:00 +2°C° 0 mm 6 m/s 761 mmHg 84%
11:00 +2°C° 0 mm 6 m/s 761 mmHg 84%
12:00 +2°C° 0 mm 6 m/s 761 mmHg 84%
13:00 +2°C° 0 mm 6 m/s 761 mmHg 85%
14:00 +2°C° 0 mm 5 m/s 762 mmHg 83%
15:00 +2°C° 0 mm 5 m/s 762 mmHg 81%
16:00 +2°C° 0 mm 5 m/s 762 mmHg 78%
17:00 +3°C° 0 mm 4 m/s 762 mmHg 79%
18:00 +3°C° 0 mm 3 m/s 762 mmHg 80%
19:00 +3°C° 0 mm 3 m/s 763 mmHg 80%
20:00 +4°C° 0 mm 2 m/s 763 mmHg 80%
21:00 +4°C° 0 mm 2 m/s 764 mmHg 79%
22:00 +4°C° 0 mm 2 m/s 764 mmHg 79%
23:00 +4°C° 0 mm 2 m/s 764 mmHg 80%

28 Februarie, Duminică

Timp Temperatura Precipitaţii Vânt Presiune Umiditate
00:00 +3°C° 0 mm 2 m/s 764 mmHg 80%
01:00 +3°C° 0 mm 2 m/s 764 mmHg 81%
02:00 +3°C° 0 mm 2 m/s 764 mmHg 83%
03:00 +3°C° 0 mm 2 m/s 764 mmHg 84%
04:00 +3°C° 0 mm 1 m/s 764 mmHg 86%
05:00 +3°C° 0 mm 1 m/s 764 mmHg 88%
06:00 +2°C° 0 mm 1 m/s 764 mmHg 90%
07:00 +2°C° 0 mm 1 m/s 764 mmHg 92%
08:00 +2°C° 0 mm 2 m/s 764 mmHg 86%
09:00 +4°C° 0 mm 2 m/s 764 mmHg 79%
10:00 +5°C° 0 mm 2 m/s 764 mmHg 73%
11:00 +6°C° 0 mm 2 m/s 764 mmHg 68%
12:00 +8°C° 0 mm 1 m/s 764 mmHg 63%
13:00 +8°C° 0 mm 1 m/s 764 mmHg 58%
14:00 +8°C° 0 mm 1 m/s 764 mmHg 57%
15:00 +8°C° 0 mm 1 m/s 763 mmHg 56%
16:00 +9°C° 0 mm 1 m/s 763 mmHg 56%
17:00 +7°C° 0 mm 1 m/s 763 mmHg 61%
18:00 +6°C° 0 mm 1 m/s 763 mmHg 66%
19:00 +4°C° 0 mm 0 m/s 763 mmHg 72%
20:00 +4°C° 0 mm 0 m/s 764 mmHg 74%
21:00 +3°C° 0 mm 0 m/s 764 mmHg 76%
22:00 +3°C° 0 mm 0 m/s 764 mmHg 78%
23:00 +2°C° 0 mm 0 m/s 764 mmHg 80%

1 Martie, Luni

Timp Temperatura Precipitaţii Vânt Presiune Umiditate
00:00 +2°C° 0 mm 0 m/s 764 mmHg 81%
01:00 +2°C° 0 mm 0 m/s 764 mmHg 83%
02:00 +2°C° 0 mm 0 m/s 764 mmHg 83%
03:00 +1°C° 0 mm 0 m/s 764 mmHg 84%
04:00 +1°C° 0 mm 0 m/s 764 mmHg 84%
05:00 +2°C° 0 mm 1 m/s 764 mmHg 85%
06:00 +2°C° 0 mm 1 m/s 764 mmHg 85%
07:00 +2°C° 0 mm 1 m/s 764 mmHg 85%
08:00 +4°C° 0 mm 1 m/s 764 mmHg 78%
09:00 +5°C° 0 mm 1 m/s 764 mmHg 72%
10:00 +7°C° 0 mm 1 m/s 765 mmHg 65%
11:00 +7°C° 0 mm 2 m/s 765 mmHg 60%
12:00 +8°C° 0 mm 2 m/s 765 mmHg 55%
13:00 +9°C° 0 mm 2 m/s 765 mmHg 50%
14:00 +9°C° 0 mm 2 m/s 764 mmHg 51%
15:00 +9°C° 0 mm 2 m/s 764 mmHg 51%
16:00 +9°C° 0 mm 2 m/s 764 mmHg 52%
17:00 +7°C° 0 mm 2 m/s 764 mmHg 56%
18:00 +5°C° 0 mm 3 m/s 765 mmHg 61%
19:00 +3°C° 0 mm 3 m/s 765 mmHg 65%
20:00 +3°C° 0 mm 3 m/s 765 mmHg 67%
21:00 +2°C° 0 mm 3 m/s 765 mmHg 68%
22:00 +2°C° 0 mm 3 m/s 765 mmHg 70%
23:00 +2°C° 0 mm 3 m/s 765 mmHg 72%
Arată mai mult

Formular de consimțământ

Meteoprog și furnizorii noștri de servicii pot stoca și accesa date personale, precum cookies, identificatori de dispozitiv sau alte tehnologii similare pe dispozitivul dumneavoastră și procesa astfel de date pentru a personaliza conținutul și reclamele, dar și pentru a oferi caracteristici de social media și pentru a analiza traficul.

  • Stocarea și/sau accesarea informațiilor pe dispozitivul dumneavoastră

    Cookies, identificatori de dispozitiv sau alte informații pot fi stocate sau accesate pe dispozitiv în scopurile indicate mai sus.

  • Reclame și conținut personalizat, evaluarea reclamelor și a conținutului, informații despre audiențe și dezvoltarea produselor

    Reclamele și conținutul pot fi personalizate pe baza unui profil. Pot fi adăugate date suplimentare pentru a personaliza mai bine reclamele și conținutul. Performanța reclamelor și conținutului poate fi măsurată. Pot fi obținute informații despre utilizatorii care au văzut reclamele și conținutul. Aceste date pot fi utilizate pentru a dezvolta sau îmbunătăți experiența utilizatorilor, sistemele și software-ul.

Dând clic pe ‘Sunt de acord’, permiteți utilizarea cookie-urilor menționate, a identificatorilor de dispozitiv, balizelor web sau altor tehnologii similare. Setările pot fi modificate din browser-ul dispozitivului dumneavoastră.

În anumite scopuri, interesele legitime pot prima asupra consimțământului. Puteți citi mai multe informații în acest sens în Politica privind Confidențialitatea Datelor și Cookie.